Showing default

ORBCOMM FM 108, 41187

Orbit data source: Space-Track

ORBCOMM FM 108, 41187 is a payload satellite owned by Orbcomm (US) in LEO that was launched on Tue, 22 Dec 2015 UTC via an FALCON 9 launch vehicle from the Air Force Eastern Test Range (AFETR). Payload-class satellites include a variety of spacecraft equipped with specific instruments for various scientific and technological missions. These include communications satellites like Starlink; space stations such as the ISS; scientific satellites like the Hubble; Earth observation satellites from companies like Planet Labs, Umbra, and HawkEye 360; GPS; miniature CubeSats for education and research; and military/defense satellites.

Loading next visibility...
Identifier
41187, 2015-081J
Orbit
LEO
Country
Flag of USUS / ORB
Related business
Manufacturer
SNC Louisville
Mission
Operational Commercial Communications
Bus & Motor
SN-100A, Unknown motor
Mass
172 kg wet, 158 kg dry
Launch date (UTC)
2015-12-22 (10 years ago)
Launch vehicle
FALCON 9
Launch site
Air Force Eastern Test Range (AFETR)
Object type
Payload
Rocket body
Debris
Shape & HBR
Box + 1 Pan + 1 Ant, 5.3 m
Radar Cross Section
2.222 m², Medium (>0.1 m² and < 1m²)

Expand to show TLE details & history
Last TLE update: 11 hours ago

TLE from 11 hours ago
0 ORBCOMM FM 108
1 41187U 15081J   26104.72999263  .00000208  00000-0  80424-4 0  9998
2 41187  47.0036 122.1990 0003706 268.9238  91.1223 14.58805060550815
Epoch: 2026-04-14T17:31Z
TLE epoch observation values (Epoch: 2026-04-14T17:31:11.363Z)
Latitude
-0.00002°
Longitude
16.49958°
Altitude
697.303 km
Speed
7.509 km/s
True Right ascension
08h 08m 47s
True Declination
0° 00' 00"
Sunlit
Object was in daylight at epoch
Visualization orbit readout
Latitude
Unknown
Longitude
Unknown
Altitude
Unknown
Speed
Unknown
Apparent Right ascension
Unknown
Apparent Declination
Unknown
Sunlit
N/A
Visualization observer readout
Local Sidereal Time
11:24:29
Azimuth
Unknown
Elevation
Unknown
Doppler factor
Unknown
Orbital elements
Apogee altitude
700.892 km
Perigee altitude
695.647 km
Semi-major axis
7,076.406 km
Eccentricity
0.00037
Inclination
47.0036°
RAAN
122.199°
Arg. of periapsis
268.9238°
True anomaly
91.16476°
Mean anomaly
91.1223°
Eccentric anomaly
91.14353°
Mean motion
3.64606 °/min
Orbital period
98.74 mins
BSTAR
0.000080424
Loading maneuver chart data...
Computing Atmospheric mass density...
Loading historical data...
Loading historical data...
Loading historical data...
Loading historical data...
Loading historical data...
Loading historical data...
Loading historical data...

Documentation

Showing up to 5 results
|